Вернуться в каталог

STARLINK-37598

АктивенСвязьVLEO
NORAD 69357·PAYLOAD·🇺🇸 United States

Запущен Jun 4, 2026 с Cape Canaveral Space Force Station

Loading…

Ближайшие Пролёты (ближайшие 24 часа)

TLE

СвежийSource: CelesTrak SupGP

Эпоха: Sep 15, 2026, 04:22 UTC

1 69357C 26123E   26258.18243056  .00043194  00000+0  12762-2 0  2584
2 69357  53.1582 166.2675 0001184  70.2635  87.4217 15.34369607    10

Отслеживайте STARLINK-37598 в реальном времени с AllMySat

Download on the App Store